Location: Days
(41.3591°N, 106.7339°W)
Time: 07:40:05
(UTC+00:00)

AIST 2D - Pass Details

Date: 30 June 2022
Orbit: 433 x 443 km, 97.0° (Epoch: 14 August)

Event Time Altitude Azimuth Distance (km) Brightness Sun altitude
Rises 04:11:55 0° 21° (NNE) 2,422 ? -13.3°
Reaches altitude 10° 04:14:05 10° 32° (NNE) 1,550 ? -13.6°
Maximum altitude 04:17:05 31° 97° (E) 786 ? -14.0°
Enters shadow 04:17:55 27° 127° (SE) 868 ? -14.1°
